GPS BIIRM-8 (PRN 05)

Last updated on Fri Apr 12 2024 01:03:03 GMT+0100 (British Summer Time)

1 35752U 09043A 24102.39183269 -.00000055 00000+0 00000+0 0 9997 2 35752 55.6211 58.9390 0055361 69.8956 289.9930 2.00573212107371
UTC large
Height (km)
Speed (km/s)
/
Latitude / Longitude
Inclination (degrees)
Orbital Period (minutes)
Azimuth
Elevation
Range (km)
Doppler Factor

Next 0 passes for location: London (51.5072 / 0.1276)

Sorry there are no passes over London.